Welcome to the New NWS' Forecast!
Most changes are behind the scenes, but click here for differences you might notice.
Latest weather observations around

Alabaster, Shelby County Airport (KEET)

Using English Units (Switch to International System of Units)
Date/ Time (CST) Wind (mph) Vis. (mi) Weather Sky Cond. Temp (°F) Rel. Humidity Wind Chill (°F) Heat Index (°F) Pressure Precip. (in)
Air Dwpt 6 hour Altimeter (inHg) Sea level (inHg) 1 hr 3 hr 6 hr
Max Min
Nov 18 01:53 SE 5 10 Mostly Cloudy BKN030 55 48     77%     29.99 29.98      
Nov 18 01:14 SE 7 10 Mostly Clear FEW027 55 47     74%     29.99        
Nov 18 00:53 SSE 5 10 Mostly Cloudy BKN028 56 47     72%     30 29.99      
Nov 17 23:53 SSE 3 10 Mostly Cloudy BKN029 56 46     69%     30.01 30.01      
Nov 17 22:53 SSE 6 10 Clear CLR 56 45     67%     30.02 30.01      
Nov 17 21:53 SE 3 10 Clear CLR 57 45     64%     30.04 30.03      
Nov 17 20:53 SE 5 10 Clear CLR 56 46     69%     30.04 30.03      
Nov 17 19:53 Calm 10 Clear CLR 57 48     72%     30.04 30.03      
Nov 17 18:53 S 3 10 Clear CLR 58 47     67%     30.06 30.06      
Nov 17 17:53 Calm 10 Clear CLR 57 48     72%     30.06 30.06      
Nov 17 16:53 Calm 10 Clear CLR 62 48     60%     30.06 30.06      
Nov 17 15:53 Calm 10 Clear CLR 68 46     45%     30.05 30.05      
Nov 17 14:53 ESE 6 10 Clear CLR 68 44     42%     30.05 30.04      
Nov 17 13:53 Calm 10 Clear CLR 67 44     44%     30.07 30.06      
Nov 17 12:53 Calm 10 Clear CLR 66 43     43%     30.09 30.09      
Nov 17 11:53 E 3 10 Clear CLR 65 44     47%     30.12 30.11      
Nov 17 10:53 3 10 Clear CLR 61 44     54%     30.15 30.14      
Nov 17 09:53 SE 6 10 Clear CLR 58 44     60%     30.19 30.18      
Nov 17 08:53 3 10 Clear CLR 53 43     69%     30.19 30.19      
Nov 17 07:53 E 3 10 Clear CLR 48 43     83% 47   30.2 30.19      
Nov 17 06:53 Calm 9 Clear CLR 40 39     97%     30.19 30.19      
Nov 17 05:53 Calm 10 Clear CLR 40 39     97%     30.16 30.16      
Nov 17 04:53 Calm 10 Clear CLR 40 39     97%     30.15 30.14      
Nov 17 03:53 Calm 10 Clear CLR 41 40     96%     30.15 30.15      
Nov 17 02:53 Calm 8 Clear CLR 42 41     96%     30.14 30.13      
Nov 17 01:53 Calm 8 Clear CLR 42 41     96%     30.16 30.15      
Nov 17 00:53 Calm 5 Fog/Mist CLR 44 43     96%     30.15 30.14      
Nov 16 23:53 Calm 8 Clear CLR 45 45     100%     30.17 30.16      
Nov 16 22:53 Calm 9 Clear CLR 46 45     96%     30.16 30.15      
Nov 16 22:00 Calm 5 Fog/Mist CLR 48 46     93%     30.16        
Nov 16 21:53 Calm 1.75 Fog/Mist CLR 47 46     97%     30.16 30.15      
Nov 16 21:44 Calm 1.75 Fog/Mist CLR 47 47     100%     30.16        
Nov 16 21:32 Calm 3 Fog/Mist CLR 49 48     97%     30.16        
Nov 16 21:20 Calm 1.75 Fog/Mist CLR 49 48     97%     30.15        
Nov 16 20:53 Calm 8 Clear CLR 50 49     96%     30.15 30.14      
Nov 16 19:53 Calm 10 Clear CLR 52 50     93%     30.14 30.13      
Nov 16 18:53 Calm 10 Clear CLR 53 52     96%     30.13 30.13      
Nov 16 17:53 Calm 10 Clear CLR 55 53     93%     30.13 30.12      
Nov 16 16:53 Calm 10 Clear CLR 58 53     84%     30.12 30.11      
Nov 16 15:53 WNW 5 10 Clear CLR 63 52     67%     30.12 30.11      
Nov 16 14:53 WNW 7 10 Mostly Clear FEW029 64 52     65%     30.12 30.11      
Nov 16 14:11 WNW 6 10 Partly Cloudy SCT029 63 52     67%     30.12        
Nov 16 13:53 NW 10 10 Cloudy OVC029 65 53     65%     30.12 30.11      
Nov 16 13:21 NW 5 10 Cloudy OVC029 64 52     65%     30.13        
Nov 16 12:53 NW 6 10 Cloudy OVC030 64 53     67%     30.13 30.12      
Nov 16 11:53 NW 5 10 Cloudy OVC033 64 51     63%     30.15 30.14      
Nov 16 10:53 Calm 10 Cloudy OVC033 62 49     62%     30.17 30.16      
Nov 16 09:53 Calm 10 Cloudy OVC032 59 48     67%     30.19 30.18      
Nov 16 08:53 Calm 9 Cloudy OVC032 58 49     72%     30.18 30.17      
Nov 16 07:53 Calm 6 Haze BKN034 57 50     77%     30.16 30.16      
Nov 16 06:53 Calm 7 Partly Cloudy SCT035 54 49     83%     30.15 30.14      
Nov 16 05:53 Calm 9 Cloudy OVC034 53 50     89%     30.14 30.14      
Nov 16 04:53 Calm 9 Cloudy OVC031 53 50     89%     30.14 30.13      
Nov 16 03:53 Calm 9 Cloudy OVC034 51 50     96%     30.13 30.11      
Nov 16 02:53 Calm 8 Mostly Clear FEW033 50 48     93%     30.12 30.11      
Nov 16 01:53 Calm 7 Mostly Clear FEW075 52 50     93%     30.11 30.1      
Nov 16 00:53 Calm 7 Cloudy SCT060 OVC075 52 50     93%     30.11 30.1      
Nov 15 23:53 Calm 7 Cloudy SCT055 OVC070 53 50     89%     30.12 30.11      
Nov 15 22:53 Calm 7 Cloudy BKN055 OVC080 55 50     83%     30.12 30.11      
Nov 15 21:53 SSE 5 7 Cloudy OVC075 55 50     83%     30.12 30.12      
Nov 15 20:53 Calm 6 Haze OVC065 55 50     83%     30.13 30.13      
Nov 15 19:53 Calm 6 Fog/Mist SCT070 OVC120 53 49     86%     30.12 30.11      
Nov 15 18:53 Calm 6 Haze CLR 52 47     83%     30.11 30.1      
Nov 15 17:53 Calm 8 Mostly Clear FEW120 55 48     77%     30.11 30.1      
Nov 15 16:53 Calm 8 Cloudy OVC110 60 46     60%     30.1 30.1      
Nov 15 15:53 SSW 5 10 Clear CLR 62 44     52%     30.09 30.08      
Nov 15 14:53 Calm 10 Mostly Cloudy BKN110 62 45     53%     30.08 30.08      
Nov 15 13:53 ESE 5 10 Clear CLR 62 44     52%     30.1 30.09      
Nov 15 12:53 5 10 Clear CLR 61 45     56%     30.11 30.11      
Nov 15 11:53 5 10 Clear CLR 58 44     60%     30.14 30.14      
Nov 15 10:53 6 10 Clear CLR 56 44     64%     30.16 30.16      
Nov 15 09:53 SSE 9 10 Clear CLR 55 43     64%     30.19 30.19      
Nov 15 08:53 SE 8 10 Clear CLR 51 44     77%     30.2 30.19      
Nov 15 07:53 ESE 6 10 Clear CLR 48 44     86% 45   30.2 30.19      
Nov 15 06:53 Calm 9 Clear CLR 45 43     93%     30.19 30.19      
Nov 15 05:53 Calm 9 Clear CLR 44 43     96%     30.19 30.18      
Nov 15 04:53 Calm 10 Clear CLR 45 43     93%     30.18 30.17      
Nov 15 03:53 E 3 10 Clear CLR 47 44     90% 46   30.16 30.15      
Nov 15 02:53 Calm 9 Clear CLR 46 45     96%     30.16 30.15      
Jun 12 05:53 Calm 10 Mostly Clear FEW023 72 71     97%   73 30.14 30.12      
Jun 11 18:53 SSE 5 10 Clear CLR 86 69     57%   90 30.08 30.05      
Jun 11 11:53 SE 6 10 Clear CLR 85 66     53%   87 30.15 30.13      
Jun 11 10:53 ESE 7 10 Mostly Clear FEW031 83 71     67%   88 30.16 30.14      
Jun 11 01:53 Calm 10 Clear   71 65     81%   72 30.08 30.06      
Jun 10 03:53 Calm 10 Mostly Cloudy BKN060 BKN075 66 65     96%     30.01 29.98      
Jun 09 21:53 Calm 10 Clear CLR 70 66     87%     29.98 29.96      
Jun 08 19:53 Calm 10 Clear CLR 72 64     76%   72 29.87 29.85      
Jun 07 07:53 N 6 10 Clear CLR 70 60     71%     29.82 29.8      
Jun 06 08:20 NNW 5 3 Light Rain and Fog/Mist SCT006 OVC017 71 71     100%   73 29.81   0    
Jun 06 07:28 Calm 5 Light Rain and Fog/Mist BKN013 BKN017 OVC043 71 71     100%   73 29.81   0    
Jun 06 06:10 NW 6 1.75 Rain and Fog/Mist BKN013 BKN020 OVC024 70 70     100%     29.81   0    
Jun 06 05:05 Calm 3 Rain and Fog/Mist FEW031 BKN042 OVC070 71 71     100%   73 29.79   0    
Jun 05 21:53 Calm 10 Clear   72 72     100%   74 29.83 29.8   0